3 Gehege Außen am Haus Messungen

Zurück zum Überblick

Zeitpunkt Temperatur Luftfeuchte
23.01.2019 04:17:20 15,8 C 37,0%
23.01.2019 04:10:19 15,6 C 38,0%
23.01.2019 04:03:16 15,8 C 37,0%
23.01.2019 04:01:32 15,8 C 37,0%
23.01.2019 03:42:07 16,1 C 37,0%
23.01.2019 03:35:05 15,7 C 38,0%
23.01.2019 03:28:02 15,8 C 37,0%
23.01.2019 03:21:02 15,9 C 37,0%
23.01.2019 03:14:00 15,6 C 38,0%
23.01.2019 03:06:58 16,0 C 37,0%
23.01.2019 02:59:57 15,7 C 38,0%
23.01.2019 02:52:55 15,9 C 37,0%
23.01.2019 02:45:54 16,0 C 38,0%
23.01.2019 02:38:52 15,6 C 38,0%
23.01.2019 02:31:48 16,1 C 37,0%
23.01.2019 02:30:04 15,8 C 37,0%
23.01.2019 02:17:43 15,8 C 38,0%
23.01.2019 02:10:41 16,0 C 38,0%
23.01.2019 02:03:38 15,6 C 38,0%
23.01.2019 01:56:37 16,0 C 38,0%
23.01.2019 01:49:35 15,7 C 38,0%
23.01.2019 01:42:33 15,7 C 38,0%
23.01.2019 01:35:32 15,9 C 38,0%
23.01.2019 01:28:29 15,5 C 38,0%
23.01.2019 01:26:45 16,0 C 38,0%
23.01.2019 01:14:25 15,6 C 38,0%
23.01.2019 01:07:24 16,0 C 38,0%
23.01.2019 01:00:23 15,9 C 38,0%
23.01.2019 00:53:22 15,9 C 38,0%
23.01.2019 00:46:19 16,0 C 38,0%
23.01.2019 00:39:18 15,6 C 38,0%
23.01.2019 00:32:15 15,9 C 38,0%
23.01.2019 00:25:14 15,8 C 38,0%
23.01.2019 00:18:14 16,2 C 38,0%
23.01.2019 00:11:10 16,1 C 38,0%
23.01.2019 00:04:07 15,7 C 38,0%
22.01.2019 23:57:05 16,2 C 38,0%
22.01.2019 23:50:04 15,8 C 38,0%
22.01.2019 23:43:03 16,1 C 38,0%
22.01.2019 23:36:02 16,1 C 38,0%
22.01.2019 23:29:01 15,7 C 38,0%
22.01.2019 23:21:57 16,0 C 38,0%
22.01.2019 23:14:55 15,8 C 38,0%
22.01.2019 23:07:52 15,8 C 38,0%
22.01.2019 23:00:49 16,1 C 38,0%
22.01.2019 22:53:45 15,6 C 39,0%
22.01.2019 22:46:43 16,1 C 38,0%
22.01.2019 22:39:41 15,9 C 39,0%
22.01.2019 22:32:39 15,8 C 39,0%
22.01.2019 22:25:38 15,9 C 39,0%